Back to catalog

CHINASAT 10

AliveCommunicationsGEO
NORAD 37677·PAYLOAD·🇨🇳 China

Launched Jun 20, 2011 from Xichang Satellite Launch Center

Loading…

TLE

FreshSource: Space-Track

Epoch: Sep 14, 2026, 14:12 UTC

1 37677U 11026A   26257.59208775 -.00000195  00000-0  00000-0 0  9991
2 37677   1.2721  83.0128 0002582  65.8857 143.2624  1.00272126 55893

Track CHINASAT 10 in real time with AllMySat

Download on the App Store